sat.trackr.live / text

‹ back to catalog

GEESAT-6 08

NORAD 65720 · 2025-214J

PAYLOAD ACTIVE UNKNOWN

§ Identity

Operator
Country
PRC
Launch date
2025-09-24
Launch site
YSLA
Launch vehicle
Mass (kg)
RCS (m²)

External: N2YO · Heavens-Above · Gunter

§ Orbital elements

Epoch: 2026-09-20T11:33:56.239488Z

Period
97.06 min
Inclination
49.9906°
Eccentricity
0.0009502
Mean motion
14.83606247 rev/d
Perigee alt
611.3 km
Apogee alt
624.6 km
Semi-major
6,996.1 km
B*
1.4149e-4
RAAN
226.8547°
Arg perigee
223.1032°
Mean anomaly
136.9163°
Rev number
5,365

§ Raw data

GEESAT-6 081 65720U 25214J   26263.48190092  .00000952  00000+0  14149-3 0  99932 65720  49.9906 226.8547 0009502 223.1032 136.9163 14.83606247 53651

JSON: /api/v1/satellites/65720 · /tle

For live sub-satellite position, see the globe view (requires WebGL).

§ Visibility from observer

Set your observer location to see the next 7 days of passes ≥ 10°. The values pass through the URL so the page stays shareable.

No JS? Fill the form by hand. The geolocation button needs JavaScript.